Time,TemperatureF,DewpointF,PressureIn,WindDirection,WindDirectionDegrees,WindSpeedMPH,WindSpeedGustMPH,Humidity,HourlyPrecipIn,Conditions,Clouds,dailyrainin,SoftwareType,DateUTC
2013-04-07 00:02:00,65.0,59.0,29.88,SE,145,5.0,-999.0,81,0.00,,,0.00,,2013-04-07 05:02:00,
2013-04-07 00:12:00,65.0,59.0,29.88,SE,145,5.0,-999.0,81,0.00,,,0.00,,2013-04-07 05:12:00,
2013-04-07 00:22:00,65.0,59.0,29.88,SSE,154,10.0,-999.0,82,0.00,,,0.00,,2013-04-07 05:22:00,
2013-04-07 00:33:00,64.0,58.0,29.88,SE,143,12.0,-999.0,82,0.00,,,0.00,,2013-04-07 05:33:00,
2013-04-07 00:42:00,64.0,58.0,29.88,SE,143,12.0,-999.0,82,0.00,,,0.00,,2013-04-07 05:42:00,
2013-04-07 00:52:00,64.0,59.0,29.88,SSE,157,10.0,-999.0,84,0.00,,,0.00,,2013-04-07 05:52:00,
2013-04-07 01:02:00,64.0,59.0,29.88,SSE,158,9.0,-999.0,85,0.00,,,0.00,,2013-04-07 06:02:00,
2013-04-07 01:12:00,64.0,59.0,29.88,SSE,158,9.0,-999.0,85,0.00,,,0.00,,2013-04-07 06:12:00,
2013-04-07 01:22:00,64.0,59.0,29.88,SSE,149,6.0,-999.0,85,0.00,,,0.00,,2013-04-07 06:22:00,
2013-04-07 01:32:00,63.0,59.0,29.88,SE,132,6.0,-999.0,86,0.00,,,0.00,,2013-04-07 06:32:00,
2013-04-07 01:42:00,63.0,59.0,29.88,SE,132,6.0,-999.0,86,0.00,,,0.00,,2013-04-07 06:42:00,
2013-04-07 01:52:00,63.0,59.0,29.88,SE,146,2.0,-999.0,87,0.00,,,0.00,,2013-04-07 06:52:00,
2013-04-07 02:02:00,63.0,59.0,29.88,SSE,161,2.0,-999.0,87,0.00,,,0.00,,2013-04-07 07:02:00,
2013-04-07 02:12:00,63.0,59.0,29.88,SSE,161,2.0,-999.0,87,0.00,,,0.00,,2013-04-07 07:12:00,
2013-04-07 02:22:00,62.0,58.0,29.88,South,169,4.0,-999.0,88,0.00,,,0.00,,2013-04-07 07:22:00,
2013-04-07 02:32:00,62.0,58.0,29.87,South,170,2.0,-999.0,88,0.00,,,0.00,,2013-04-07 07:32:00,
2013-04-07 02:42:00,62.0,58.0,29.87,South,170,2.0,-999.0,88,0.00,,,0.00,,2013-04-07 07:42:00,
2013-04-07 02:52:00,62.0,59.0,29.88,South,191,3.0,-999.0,89,0.00,,,0.00,,2013-04-07 07:52:00,
2013-04-07 03:02:00,62.0,59.0,29.88,South,191,2.0,-999.0,89,0.00,,,0.00,,2013-04-07 08:02:00,
2013-04-07 03:12:00,61.0,58.0,29.87,South,191,2.0,-999.0,90,0.00,,,0.00,,2013-04-07 08:12:00,
2013-04-07 03:22:00,61.0,58.0,29.87,South,191,2.0,-999.0,90,0.00,,,0.00,,2013-04-07 08:22:00,
2013-04-07 03:32:00,61.0,58.0,29.87,South,191,1.0,-999.0,91,0.00,,,0.00,,2013-04-07 08:32:00,
2013-04-07 03:42:00,61.0,58.0,29.87,South,191,1.0,-999.0,91,0.00,,,0.00,,2013-04-07 08:42:00,
2013-04-07 03:53:00,61.0,58.0,29.86,South,191,1.0,-999.0,91,0.00,,,0.00,,2013-04-07 08:53:00,
2013-04-07 04:02:00,62.0,59.0,29.86,South,191,2.0,-999.0,91,0.00,,,0.00,,2013-04-07 09:02:00,
2013-04-07 04:12:00,62.0,59.0,29.86,South,191,2.0,-999.0,91,0.00,,,0.00,,2013-04-07 09:12:00,
2013-04-07 04:22:00,62.0,59.0,29.86,South,191,1.0,-999.0,91,0.00,,,0.00,,2013-04-07 09:22:00,
2013-04-07 04:33:00,62.0,59.0,29.85,SSE,155,2.0,-999.0,90,0.00,,,0.00,,2013-04-07 09:33:00,
2013-04-07 04:43:00,62.0,59.0,29.85,SSE,155,2.0,-999.0,90,0.00,,,0.00,,2013-04-07 09:43:00,
2013-04-07 04:53:00,62.0,59.0,29.85,SSE,155,2.0,-999.0,90,0.00,,,0.00,,2013-04-07 09:53:00,
2013-04-07 05:03:00,62.0,59.0,29.85,SSE,155,1.0,-999.0,91,0.00,,,0.00,,2013-04-07 10:03:00,
2013-04-07 05:13:00,62.0,59.0,29.85,SSE,155,1.0,-999.0,91,0.00,,,0.00,,2013-04-07 10:13:00,
2013-04-07 05:22:00,62.0,59.0,29.85,SE,136,1.0,-999.0,91,0.00,,,0.00,,2013-04-07 10:22:00,
2013-04-07 05:33:00,62.0,59.0,29.85,SE,130,2.0,-999.0,90,0.00,,,0.00,,2013-04-07 10:33:00,
2013-04-07 05:43:00,62.0,59.0,29.85,SE,130,2.0,-999.0,90,0.00,,,0.00,,2013-04-07 10:43:00,
2013-04-07 05:54:00,62.0,59.0,29.85,SE,130,1.0,-999.0,90,0.00,,,0.00,,2013-04-07 10:54:00,
2013-04-07 06:02:00,62.0,59.0,29.85,SE,130,2.0,-999.0,91,0.00,,,0.00,,2013-04-07 11:02:00,
2013-04-07 06:12:00,62.0,59.0,29.85,SE,130,2.0,-999.0,91,0.00,,,0.00,,2013-04-07 11:12:00,
2013-04-07 06:22:00,62.0,59.0,29.85,SE,134,2.0,-999.0,91,0.00,,,0.00,,2013-04-07 11:22:00,
2013-04-07 06:32:00,63.0,60.0,29.85,SSE,147,5.0,-999.0,91,0.00,,,0.00,,2013-04-07 11:32:00,
2013-04-07 06:42:00,63.0,60.0,29.85,SSE,147,5.0,-999.0,91,0.00,,,0.00,,2013-04-07 11:42:00,
2013-04-07 06:53:00,63.0,60.0,29.86,SSE,148,5.0,-999.0,91,0.00,,,0.00,,2013-04-07 11:53:00,
2013-04-07 07:02:00,63.0,60.0,29.86,SE,136,3.0,-999.0,91,0.00,,,0.00,,2013-04-07 12:02:00,
2013-04-07 07:12:00,63.0,60.0,29.86,SE,136,3.0,-999.0,91,0.00,,,0.00,,2013-04-07 12:12:00,
2013-04-07 07:22:00,63.0,60.0,29.86,SE,134,3.0,-999.0,91,0.00,,,0.00,,2013-04-07 12:22:00,
2013-04-07 07:33:00,63.0,60.0,29.87,SE,134,3.0,-999.0,91,0.00,,,0.00,,2013-04-07 12:33:00,
2013-04-07 07:42:00,63.0,60.0,29.87,SE,134,3.0,-999.0,91,0.00,,,0.00,,2013-04-07 12:42:00,
2013-04-07 07:53:00,63.0,60.0,29.87,SSE,161,2.0,-999.0,91,0.00,,,0.00,,2013-04-07 12:53:00,
2013-04-07 08:03:00,63.0,61.0,29.88,SSE,167,3.0,-999.0,92,0.00,,,0.00,,2013-04-07 13:03:00,
2013-04-07 08:13:00,63.0,61.0,29.88,SSE,167,3.0,-999.0,92,0.00,,,0.00,,2013-04-07 13:13:00,
2013-04-07 08:22:00,63.0,61.0,29.88,SSE,163,6.0,-999.0,92,0.00,,,0.00,,2013-04-07 13:22:00,
2013-04-07 08:32:00,63.0,61.0,29.89,SSE,153,4.0,-999.0,92,0.00,,,0.00,,2013-04-07 13:32:00,
2013-04-07 08:42:00,63.0,61.0,29.89,SSE,153,4.0,-999.0,92,0.00,,,0.00,,2013-04-07 13:42:00,
2013-04-07 08:53:00,63.0,61.0,29.89,South,180,5.0,-999.0,92,0.00,,,0.00,,2013-04-07 13:53:00,
2013-04-07 09:02:00,64.0,62.0,29.89,SE,140,6.0,-999.0,92,0.00,,,0.00,,2013-04-07 14:02:00,
2013-04-07 09:12:00,64.0,62.0,29.89,SE,140,6.0,-999.0,92,0.00,,,0.00,,2013-04-07 14:12:00,
2013-04-07 09:23:00,64.0,61.0,29.89,SSE,155,6.0,-999.0,91,0.00,,,0.00,,2013-04-07 14:23:00,
2013-04-07 09:32:00,64.0,61.0,29.89,SSE,163,8.0,-999.0,91,0.00,,,0.00,,2013-04-07 14:32:00,
2013-04-07 09:43:00,64.0,61.0,29.89,SSE,163,8.0,-999.0,91,0.00,,,0.00,,2013-04-07 14:43:00,
2013-04-07 09:54:00,65.0,62.0,29.89,South,182,5.0,-999.0,90,0.00,,,0.00,,2013-04-07 14:54:00,
2013-04-07 10:02:00,65.0,62.0,29.89,SSE,151,7.0,-999.0,89,0.00,,,0.00,,2013-04-07 15:02:00,
2013-04-07 10:12:00,66.0,63.0,29.90,SSE,151,4.0,-999.0,89,0.00,,,0.00,,2013-04-07 15:12:00,
2013-04-07 10:22:00,66.0,63.0,29.90,SSE,151,4.0,-999.0,89,0.00,,,0.00,,2013-04-07 15:22:00,
2013-04-07 10:33:00,66.0,62.0,29.90,SE,141,11.0,-999.0,88,0.00,,,0.00,,2013-04-07 15:33:00,
2013-04-07 10:44:00,66.0,62.0,29.90,SE,141,11.0,-999.0,88,0.00,,,0.00,,2013-04-07 15:44:00,
2013-04-07 10:55:00,66.0,62.0,29.90,South,183,10.0,-999.0,87,0.00,,,0.00,,2013-04-07 15:55:00,
2013-04-07 11:03:00,67.0,63.0,29.90,SSE,165,9.0,-999.0,86,0.00,,,0.00,,2013-04-07 16:03:00,
2013-04-07 11:13:00,67.0,63.0,29.90,SSE,165,9.0,-999.0,86,0.00,,,0.00,,2013-04-07 16:13:00,
2013-04-07 11:24:00,68.0,63.0,29.89,SSE,157,7.0,-999.0,85,0.00,,,0.00,,2013-04-07 16:24:00,
2013-04-07 11:33:00,68.0,63.0,29.89,South,173,7.0,-999.0,83,0.00,,,0.00,,2013-04-07 16:33:00,
2013-04-07 11:42:00,68.0,63.0,29.89,South,173,7.0,-999.0,83,0.00,,,0.00,,2013-04-07 16:42:00,
2013-04-07 11:54:00,69.0,63.0,29.89,SSE,163,10.0,-999.0,82,0.00,,,0.00,,2013-04-07 16:54:00,
2013-04-07 12:03:00,69.0,63.0,29.89,SSE,163,10.0,-999.0,82,0.00,,,0.00,,2013-04-07 17:03:00,
2013-04-07 12:13:00,69.0,63.0,29.89,SSE,163,10.0,-999.0,82,0.00,,,0.00,,2013-04-07 17:13:00,
2013-04-07 12:23:00,71.0,64.0,29.88,South,175,9.0,-999.0,79,0.00,,,0.00,,2013-04-07 17:23:00,
2013-04-07 12:33:00,72.0,64.0,29.88,SE,146,7.0,-999.0,77,0.00,,,0.00,,2013-04-07 17:33:00,
2013-04-07 12:43:00,72.0,64.0,29.88,SE,146,7.0,-999.0,77,0.00,,,0.00,,2013-04-07 17:43:00,
2013-04-07 12:54:00,73.0,64.0,29.88,SE,146,6.0,-999.0,74,0.00,,,0.00,,2013-04-07 17:54:00,
2013-04-07 13:02:00,75.0,65.0,29.86,SSE,148,12.0,-999.0,71,0.00,,,0.00,,2013-04-07 18:02:00,
2013-04-07 13:13:00,75.0,65.0,29.86,SSE,148,12.0,-999.0,71,0.00,,,0.00,,2013-04-07 18:13:00,
2013-04-07 13:23:00,76.0,65.0,29.85,SE,138,11.0,-999.0,68,0.00,,,0.00,,2013-04-07 18:23:00,
2013-04-07 13:32:00,78.0,65.0,29.84,SSE,167,2.0,-999.0,65,0.00,,,0.00,,2013-04-07 18:32:00,
2013-04-07 13:43:00,78.0,65.0,29.84,SSE,167,2.0,-999.0,65,0.00,,,0.00,,2013-04-07 18:43:00,
2013-04-07 13:53:00,79.0,65.0,29.84,SSE,155,10.0,-999.0,63,0.00,,,0.00,,2013-04-07 18:53:00,
2013-04-07 14:02:00,80.0,64.0,29.83,SE,138,8.0,-999.0,59,0.00,,,0.00,,2013-04-07 19:02:00,
2013-04-07 14:12:00,80.0,64.0,29.83,SE,138,8.0,-999.0,59,0.00,,,0.00,,2013-04-07 19:12:00,
2013-04-07 14:22:00,82.0,65.0,29.82,South,184,11.0,-999.0,57,0.00,,,0.00,,2013-04-07 19:22:00,
2013-04-07 14:32:00,81.0,64.0,29.81,SSE,150,8.0,-999.0,57,0.00,,,0.00,,2013-04-07 19:32:00,
2013-04-07 14:42:00,81.0,64.0,29.81,SSE,150,8.0,-999.0,57,0.00,,,0.00,,2013-04-07 19:42:00,
2013-04-07 14:55:00,82.0,64.0,29.80,SSE,155,15.0,-999.0,55,0.00,,,0.00,,2013-04-07 19:55:00,
2013-04-07 15:02:00,83.0,64.0,29.78,ESE,105,11.0,-999.0,53,0.00,,,0.00,,2013-04-07 20:02:00,
2013-04-07 15:13:00,83.0,64.0,29.78,ESE,105,11.0,-999.0,53,0.00,,,0.00,,2013-04-07 20:13:00,
2013-04-07 15:22:00,84.0,64.0,29.78,SE,146,8.0,-999.0,51,0.00,,,0.00,,2013-04-07 20:22:00,
2013-04-07 15:32:00,84.0,64.0,29.78,SSE,155,11.0,-999.0,52,0.00,,,0.00,,2013-04-07 20:32:00,
2013-04-07 15:43:00,84.0,64.0,29.78,SSE,155,11.0,-999.0,52,0.00,,,0.00,,2013-04-07 20:43:00,
2013-04-07 15:53:00,83.0,64.0,29.78,SSE,148,14.0,-999.0,52,0.00,,,0.00,,2013-04-07 20:53:00,
2013-04-07 16:03:00,84.0,63.0,29.76,SSE,166,14.0,-999.0,49,0.00,,,0.00,,2013-04-07 21:03:00,
2013-04-07 16:13:00,84.0,63.0,29.76,SSE,166,14.0,-999.0,49,0.00,,,0.00,,2013-04-07 21:13:00,
2013-04-07 16:22:00,85.0,64.0,29.75,SE,141,12.0,-999.0,49,0.00,,,0.00,,2013-04-07 21:22:00,
2013-04-07 16:33:00,84.0,63.0,29.74,ESE,123,13.0,-999.0,50,0.00,,,0.00,,2013-04-07 21:33:00,
2013-04-07 16:43:00,84.0,63.0,29.74,ESE,123,13.0,-999.0,50,0.00,,,0.00,,2013-04-07 21:43:00,
2013-04-07 16:55:00,85.0,64.0,29.74,SSE,162,12.0,-999.0,49,0.00,,,0.00,,2013-04-07 21:55:00,
2013-04-07 17:03:00,85.0,64.0,29.73,ESE,121,15.0,-999.0,49,0.00,,,0.00,,2013-04-07 22:03:00,
2013-04-07 17:13:00,85.0,64.0,29.73,ESE,121,15.0,-999.0,49,0.00,,,0.00,,2013-04-07 22:13:00,
2013-04-07 17:23:00,84.0,62.0,29.73,East,94,15.0,-999.0,48,0.00,,,0.00,,2013-04-07 22:23:00,
2013-04-07 17:33:00,84.0,62.0,29.72,SE,144,11.0,-999.0,48,0.00,,,0.00,,2013-04-07 22:33:00,
2013-04-07 17:43:00,84.0,62.0,29.72,SE,144,11.0,-999.0,48,0.00,,,0.00,,2013-04-07 22:43:00,
2013-04-07 17:53:00,84.0,63.0,29.72,SE,127,11.0,-999.0,49,0.00,,,0.00,,2013-04-07 22:53:00,
2013-04-07 18:03:00,83.0,63.0,29.73,SE,136,12.0,-999.0,51,0.00,,,0.00,,2013-04-07 23:03:00,
2013-04-07 18:13:00,83.0,63.0,29.73,SE,136,12.0,-999.0,51,0.00,,,0.00,,2013-04-07 23:13:00,
2013-04-07 18:22:00,82.0,63.0,29.73,ESE,117,12.0,-999.0,52,0.00,,,0.00,,2013-04-07 23:22:00,
2013-04-07 18:32:00,81.0,63.0,29.73,SE,131,10.0,-999.0,54,0.00,,,0.00,,2013-04-07 23:32:00,
2013-04-07 18:42:00,81.0,63.0,29.73,SE,131,10.0,-999.0,54,0.00,,,0.00,,2013-04-07 23:42:00,
2013-04-07 18:52:00,81.0,63.0,29.73,SE,132,19.0,-999.0,54,0.00,,,0.00,,2013-04-07 23:52:00,
2013-04-07 19:02:00,80.0,63.0,29.74,SE,135,11.0,-999.0,57,0.00,,,0.00,,2013-04-08 00:02:00,
2013-04-07 19:12:00,80.0,63.0,29.74,SE,135,11.0,-999.0,57,0.00,,,0.00,,2013-04-08 00:12:00,
2013-04-07 19:22:00,79.0,63.0,29.74,SE,138,10.0,-999.0,58,0.00,,,0.00,,2013-04-08 00:22:00,
2013-04-07 19:32:00,77.0,63.0,29.74,ESE,112,10.0,-999.0,61,0.00,,,0.00,,2013-04-08 00:32:00,
2013-04-07 19:42:00,77.0,63.0,29.74,ESE,112,10.0,-999.0,61,0.00,,,0.00,,2013-04-08 00:42:00,
2013-04-07 19:53:00,75.0,62.0,29.75,SE,130,11.0,-999.0,64,0.00,,,0.00,,2013-04-08 00:53:00,
2013-04-07 20:02:00,75.0,62.0,29.75,SE,136,11.0,-999.0,65,0.00,,,0.00,,2013-04-08 01:02:00,
2013-04-07 20:12:00,75.0,62.0,29.75,SE,136,11.0,-999.0,65,0.00,,,0.00,,2013-04-08 01:12:00,
2013-04-07 20:22:00,73.0,61.0,29.76,SE,126,12.0,-999.0,67,0.00,,,0.00,,2013-04-08 01:22:00,
2013-04-07 20:33:00,73.0,62.0,29.76,ESE,117,5.0,-999.0,69,0.00,,,0.00,,2013-04-08 01:33:00,
2013-04-07 20:43:00,73.0,62.0,29.76,ESE,117,5.0,-999.0,69,0.00,,,0.00,,2013-04-08 01:43:00,
2013-04-07 20:55:00,72.0,62.0,29.76,SE,141,7.0,-999.0,70,0.00,,,0.00,,2013-04-08 01:55:00,
2013-04-07 21:02:00,71.0,62.0,29.76,SE,127,7.0,-999.0,72,0.00,,,0.00,,2013-04-08 02:02:00,
2013-04-07 21:12:00,71.0,62.0,29.76,SE,127,7.0,-999.0,72,0.00,,,0.00,,2013-04-08 02:12:00,
2013-04-07 21:22:00,71.0,62.0,29.77,SSE,148,13.0,-999.0,74,0.00,,,0.00,,2013-04-08 02:22:00,
2013-04-07 21:33:00,70.0,62.0,29.77,SE,143,9.0,-999.0,75,0.00,,,0.00,,2013-04-08 02:33:00,
2013-04-07 21:45:00,70.0,62.0,29.77,SE,143,9.0,-999.0,75,0.00,,,0.00,,2013-04-08 02:45:00,
2013-04-07 21:54:00,70.0,62.0,29.78,SE,146,9.0,-999.0,75,0.00,,,0.00,,2013-04-08 02:54:00,
2013-04-07 22:06:00,70.0,62.0,29.78,SE,140,11.0,-999.0,77,0.00,,,0.00,,2013-04-08 03:06:00,
2013-04-07 22:14:00,70.0,62.0,29.78,SE,140,11.0,-999.0,77,0.00,,,0.00,,2013-04-08 03:14:00,
2013-04-07 22:24:00,70.0,62.0,29.79,SE,143,9.0,-999.0,76,0.00,,,0.00,,2013-04-08 03:24:00,
2013-04-07 22:33:00,70.0,62.0,29.79,SE,146,12.0,-999.0,77,0.00,,,0.00,,2013-04-08 03:33:00,
2013-04-07 22:47:00,70.0,62.0,29.79,SE,146,12.0,-999.0,77,0.00,,,0.00,,2013-04-08 03:47:00,
2013-04-07 22:56:00,70.0,62.0,29.80,SSE,158,9.0,-999.0,77,0.00,,,0.00,,2013-04-08 03:56:00,
2013-04-07 23:03:00,70.0,62.0,29.80,SE,142,8.0,-999.0,77,0.00,,,0.00,,2013-04-08 04:03:00,
2013-04-07 23:12:00,70.0,62.0,29.80,SE,142,8.0,-999.0,77,0.00,,,0.00,,2013-04-08 04:12:00,
2013-04-07 23:23:00,69.0,62.0,29.80,ESE,104,11.0,-999.0,78,0.00,,,0.00,,2013-04-08 04:23:00,
2013-04-07 23:33:00,69.0,63.0,29.80,SE,144,8.0,-999.0,80,0.00,,,0.00,,2013-04-08 04:33:00,
2013-04-07 23:44:00,69.0,63.0,29.80,SE,144,8.0,-999.0,80,0.00,,,0.00,,2013-04-08 04:44:00,
2013-04-07 23:53:00,68.0,62.0,29.81,SE,141,10.0,-999.0,81,0.00,,,0.00,,2013-04-08 04:53:00,